Simultaneous Nadir Overpasses (SNOs) Predictions

Prediction of SNOs between LANDSAT-8 and METOP-B Satellite Orbit:

Table of predicted SNOs for the next 14.0 days since TLE Epoch: 2/7/2014
Index Date (LANDSAT-8) Time (LANDSAT-8) Lat,Lon (LANDSAT-8) SZA (LANDSAT-8 ) Date (METOP-B) Time (METOP-B) Lat,Lon (METOP-B) SZA (METOP-B ) Distance(km) Time Diff (sec)
1 02/09/2014 01:46:20 81.05,-168.00 97.32 02/09/2014 01:45:28 81.05,-168.13 97.30 2.31 52
2 02/09/2014 02:35:45 -81.09, 0.23 82.61 02/09/2014 02:36:05 -81.10, 0.32 82.59 1.72 20
3 02/11/2014 21:20:30 81.07,-101.29 96.45 02/11/2014 21:19:47 81.06,-101.46 96.41 3.13 43
4 02/11/2014 22:09:56 -81.09, 66.59 83.53 02/11/2014 22:10:25 -81.09, 66.63 83.51 0.85 29
5 02/14/2014 16:54:41 81.08, -34.74 95.52 02/14/2014 16:54:07 81.07, -34.87 95.49 2.32 34
6
